Sign In / Sign Up
 
 
Falling Leaves Regatta. Leg 1. 17/10 - 23/10



Race Date (UTC) # I place II place III place Track
Race2441 2016-10-18 19:20:22 8 Lintel D-MAN Lev
Race2440 2016-10-18 19:19:13 8 Argonaftis DavyJones baton
Race2439 2016-10-18 19:18:41 8 zapata o Altogodimento
Race2438 2016-10-18 19:17:57 8 ODV twin Oreste
Race2437 2016-10-18 19:17:26 8 IOTINKOOK Matushka listrigon
Race2436 2016-10-18 19:16:33 8 Olisa Geronimo figufo
Race2435 2016-10-18 19:16:10 8 hugggster suiius II Marakesh express.
Race2434 2016-10-18 19:15:23 8 Lord of the sea Mascalzone Latino wot ever
Race2433 2016-10-18 19:14:45 8 Lintel dew .
Race2432 2016-10-18 19:13:53 8 SPINOUT Giorgio ALINERA
Race2431 2016-10-18 19:13:06 8 careless whisper Koninu baton
Race2430 2016-10-18 19:12:06 8 schneebrunzer Leandro
Race2429 2016-10-18 19:11:09 8 Perkele Egun Onak Matushka
Race2428 2016-10-18 19:10:29 8 figufo Radek MJ
Race2427 2016-10-18 19:10:03 8 mustafa suiius II hugggster
Race2426 2016-10-18 19:09:35 8 Lev verde +39 Hun 763
Race2425 2016-10-18 19:08:07 8 Mascalzone Latino ciao Mago
Race2424 2016-10-18 19:07:44 8 Bali ESP-52782 Feeling
Race2423 2016-10-18 19:06:59 8 ANLCTN baton Koninu
Race2422 2016-10-18 19:06:37 8 jtc Altogodimento Iacopo
Race2421 2016-10-18 19:05:43 8 schneebrunzer KataevRUS. Leandro
Race2420 2016-10-18 19:05:18 8 Matushka Иван Musashi
Race2419 2016-10-18 19:04:51 8 Alea figufo Perkele
Race2418 2016-10-18 19:04:02 8 D-MAN zapata suiius II
Race2417 2016-10-18 19:03:43 8 goran Darren hugggster
Race2416 2016-10-18 19:02:34 8 Pink Lady Mascalzone Latino CORONAVIRUS
Race2415 2016-10-18 19:01:50 8 Olisa Lev ciao
Race2414 2016-10-18 19:01:26 8 player05 Lintel stucazz
Race2413 2016-10-18 19:00:44 8 baton Giorgio ANLCTN
Race2412 2016-10-18 19:00:04 8 Altogodimento KataevRUS. jtc
Race2411 2016-10-18 18:59:22 8 CapDeBos Matushka Ganzuria
Race2410 2016-10-18 18:58:57 8 Perkele JJ
Race2409 2016-10-18 18:58:23 8 Koninu Cutty Sark €€€
Race2408 2016-10-18 18:57:43 8 Balancine de bôme New 2 boat twin
Race2407 2016-10-18 18:56:50 8 Alea MJ goran
Race2406 2016-10-18 18:56:01 8 VmG Geronimo nzoko
Race2405 2016-10-18 18:55:33 8 lift off CORONAVIRUS Josh
Race2404 2016-10-18 18:55:13 8 Giorgio abc123 player05
Race2403 2016-10-18 18:54:51 8 Bolder smiling parrot ANLCTN
Race2402 2016-10-18 18:54:19 8 KataevRUS. Thermopolyae Feeling
Race2401 2016-10-18 18:53:57 8 Matushka Altogodimento baton
Race2400 2016-10-18 18:53:06 8 Monarch Luca CapDeBos
Race2399 2016-10-18 18:52:42 8 figufo Koninu
Race2398 2016-10-18 18:52:18 8 KnurR Cutty Sark billellera
Race2397 2016-10-18 18:51:48 8 artemisia Alessandro Radek
Race2396 2016-10-18 18:50:28 8 Stella dell'Est MJ Cyrus
Race2395 2016-10-18 18:49:56 8 New 2 boat ITA-142374 ANLCTN
Race2394 2016-10-18 18:49:30 8 Lintel Alea lift off
Race2393 2016-10-18 18:49:13 8 caribe Giorgio federico
Race2392 2016-10-18 18:48:34 8 KataevRUS. Oreste smiling parrot
Race2391 2016-10-18 18:47:46 8 baton Gustaf tern wm-6
Race2390 2016-10-18 18:47:08 8 Gingio CapDeBos Balancine de bôme
Race2389 2016-10-18 18:46:45 8 billellera Koninu figufo
Race2388 2016-10-18 18:46:21 8 Guga Grael 2 goran Matushka
Race2387 2016-10-18 18:45:48 8 FRA 201825 JJ Distraction
Race2386 2016-10-18 18:45:21 8 MJ Stella dell'Est Thermopolyae
Race2385 2016-10-18 18:44:03 5 KnurR Feeling Saba
Race2384 2016-10-18 18:43:48 8 federico CORONAVIRUS ELIOTLUCAS-3
Race2383 2016-10-18 18:43:11 8 xR3 caribe Lintel
Race2382 2016-10-18 18:42:50 8 Jonathan ₩ smiling parrot bolina74
Race2381 2016-10-18 18:42:00 8 . BeteNoir baton
Race2380 2016-10-18 18:41:21 8 Peludo Follow Me Atila
Race2379 2016-10-18 18:40:55 8 Bitten 44 Lev
Race2378 2016-10-18 18:40:28 8 TURK Altair figufo
Race2377 2016-10-18 18:39:23 8 miracle FRA 201825 Distraction
Race2376 2016-10-18 18:38:17 8 TUR 202290 Thermopolyae Aita
Race2375 2016-10-18 18:37:38 8 xR3 Lintel ELIOTLUCAS-3
Race2374 2016-10-18 18:37:02 8 kate koll caribe Tavo
Race2373 2016-10-18 18:36:13 8 ge614 BeteNoir HotTuna!
Race2372 2016-10-18 18:35:08 8 heidi Oreste baton
Race2371 2016-10-18 18:34:48 8 TURK Altair Altogodimento
Race2370 2016-10-18 18:34:02 8 Lev 4'06,30'' figufo
Race2369 2016-10-18 18:32:47 8 FRA 201825 Geronimo valver
Race2368 2016-10-18 18:32:01 8 Dart18 New 2 boat TUR 202290
Race2367 2016-10-18 18:31:21 8 Lucona Lintel bolina74
Race2366 2016-10-18 18:31:04 8 kate koll caribe Guga Grael 2
Race2365 2016-10-18 18:30:00 8 BeteNoir sernautic ge614
Race2364 2016-10-18 18:29:24 8 Giorgio mignotta baton
Race2363 2016-10-18 18:28:42 8 TURK RAYO Salsa
Race2362 2016-10-18 18:27:46 8 ELIOTLUCAS-3 billellera figufo
Race2361 2016-10-18 18:27:15 8 MALA valver SailAlong
Race2360 2016-10-18 18:26:04 8 CZE284 jorge53112 miracle
Race2359 2016-10-18 18:25:39 8 bolina74 ESP-56021 ABRIL TUR 202290
Race2358 2016-10-18 18:25:11 8 Guga Grael 2 E Daje xR3
Race2357 2016-10-18 18:24:33 8 sernautic kate koll Paolo 66
Race2356 2016-10-18 18:23:53 8 ge614 Bolder boat
Race2355 2016-10-18 18:23:17 8 baton Maremansa wot ever
Race2354 2016-10-18 18:22:38 8 4'06,30'' RAYO Oreste
Race2353 2016-10-18 18:22:20 8 Altogodimento Peludo mr.cello
Race2352 2016-10-18 18:21:42 8 valver New 2 boat Aita
Race2351 2016-10-18 18:21:01 8 MALA ODV Marakesh express.
Race2350 2016-10-18 18:20:19 8 Giorgio FRA 201825 miracle
Race2349 2016-10-18 18:19:36 8 Lev vasek470 Y.C. Tempio Pausania
Race2348 2016-10-18 18:18:48 8 Guga Grael 2 Paolo 66 sunseeker
Race2347 2016-10-18 18:18:09 8 kate koll Nalu lift off
Race2346 2016-10-18 18:17:48 8 Navegante smiling parrot ge614
Race2345 2016-10-18 18:16:46 8 4'06,30'' vms random rules baton
Race2344 2016-10-18 18:16:23 8 Altogodimento Salsa New 2 boat
Race2343 2016-10-18 18:15:32 8 valver Fancy Snipe
Race2342 2016-10-18 18:14:42 8 player05 TUR 202290 tambu24